Time,TemperatureF,DewpointF,PressureIn,WindDirection,WindDirectionDegrees,WindSpeedMPH,WindSpeedGustMPH,Humidity,HourlyPrecipIn,Conditions,Clouds,dailyrainin,SoftwareType,DateUTC
2013-09-10 00:03:00,70.3,68.0,30.14,SSW,192,0.0,0.0,93,0.00,,,0.00,weatherlink.com 1.10,2013-09-10 04:03:00,
2013-09-10 00:18:00,70.0,68.0,30.14,SSW,192,0.0,0.0,93,0.00,,,0.00,weatherlink.com 1.10,2013-09-10 04:18:00,
2013-09-10 00:33:00,69.8,68.0,30.14,SSW,192,0.0,0.0,93,0.00,,,0.00,weatherlink.com 1.10,2013-09-10 04:33:00,
2013-09-10 00:48:00,69.5,68.0,30.14,SSW,192,0.0,0.0,94,0.00,,,0.00,weatherlink.com 1.10,2013-09-10 04:48:00,
2013-09-10 01:03:00,69.3,68.0,30.14,SSW,192,0.0,0.0,94,0.00,,,0.00,weatherlink.com 1.10,2013-09-10 05:03:00,
2013-09-10 01:18:00,69.2,68.0,30.14,SSW,192,0.0,0.0,94,0.00,,,0.00,weatherlink.com 1.10,2013-09-10 05:18:00,
2013-09-10 01:33:00,69.0,67.0,30.14,SSW,192,0.0,0.0,94,0.00,,,0.00,weatherlink.com 1.10,2013-09-10 05:33:00,
2013-09-10 01:48:00,68.8,67.0,30.14,SSW,192,0.0,0.0,95,0.00,,,0.00,weatherlink.com 1.10,2013-09-10 05:48:00,
2013-09-10 02:04:00,68.7,67.0,30.14,SSW,192,0.0,0.0,95,0.00,,,0.00,weatherlink.com 1.10,2013-09-10 06:04:00,
2013-09-10 02:19:00,68.7,67.0,30.14,SSW,192,0.0,0.0,95,0.00,,,0.00,weatherlink.com 1.10,2013-09-10 06:19:00,
2013-09-10 02:34:00,68.6,67.0,30.14,SSW,192,0.0,0.0,95,0.00,,,0.00,weatherlink.com 1.10,2013-09-10 06:34:00,
2013-09-10 02:49:00,68.4,67.0,30.14,SSW,192,0.0,0.0,95,0.00,,,0.00,weatherlink.com 1.10,2013-09-10 06:49:00,
2013-09-10 03:04:00,68.3,67.0,30.15,SSW,192,0.0,0.0,95,0.00,,,0.00,weatherlink.com 1.10,2013-09-10 07:04:00,
2013-09-10 03:19:00,68.1,67.0,30.15,SSW,192,0.0,0.0,95,0.00,,,0.00,weatherlink.com 1.10,2013-09-10 07:19:00,
2013-09-10 03:34:00,67.9,67.0,30.15,SSW,192,0.0,0.0,95,0.00,,,0.00,weatherlink.com 1.10,2013-09-10 07:34:00,
2013-09-10 03:49:00,67.6,67.0,30.15,SSW,192,0.0,0.0,96,0.00,,,0.00,weatherlink.com 1.10,2013-09-10 07:49:00,
2013-09-10 04:04:00,67.4,66.0,30.15,SSW,192,0.0,0.0,96,0.00,,,0.00,weatherlink.com 1.10,2013-09-10 08:04:00,
2013-09-10 04:19:00,67.4,66.0,30.15,SSW,192,0.0,0.0,96,0.00,,,0.00,weatherlink.com 1.10,2013-09-10 08:19:00,
2013-09-10 04:34:00,67.3,66.0,30.15,SSW,192,0.0,0.0,96,0.00,,,0.00,weatherlink.com 1.10,2013-09-10 08:34:00,
2013-09-10 04:49:00,67.2,66.0,30.16,SSW,192,0.0,0.0,96,0.00,,,0.00,weatherlink.com 1.10,2013-09-10 08:49:00,
2013-09-10 05:04:00,67.0,66.0,30.16,SSW,192,0.0,0.0,96,0.00,,,0.00,weatherlink.com 1.10,2013-09-10 09:04:00,
2013-09-10 05:19:00,66.7,66.0,30.16,SSW,192,0.0,0.0,96,0.00,,,0.00,weatherlink.com 1.10,2013-09-10 09:19:00,
2013-09-10 05:34:00,66.6,66.0,30.16,SSW,192,0.0,0.0,96,0.00,,,0.00,weatherlink.com 1.10,2013-09-10 09:34:00,
2013-09-10 05:49:00,66.5,66.0,30.16,SSW,192,0.0,0.0,97,0.00,,,0.00,weatherlink.com 1.10,2013-09-10 09:49:00,
2013-09-10 06:04:00,66.5,66.0,30.16,SSW,192,0.0,0.0,97,0.00,,,0.00,weatherlink.com 1.10,2013-09-10 10:04:00,
2013-09-10 06:19:00,66.5,66.0,30.17,SSW,192,0.0,0.0,97,0.00,,,0.00,weatherlink.com 1.10,2013-09-10 10:19:00,
2013-09-10 06:34:00,66.3,66.0,30.17,SSW,192,0.0,0.0,97,0.00,,,0.00,weatherlink.com 1.10,2013-09-10 10:34:00,
2013-09-10 06:49:00,66.2,65.0,30.18,SSW,192,0.0,0.0,97,0.00,,,0.00,weatherlink.com 1.10,2013-09-10 10:49:00,
2013-09-10 07:04:00,66.2,65.0,30.18,SSW,192,0.0,0.0,97,0.00,,,0.00,weatherlink.com 1.10,2013-09-10 11:04:00,
2013-09-10 07:19:00,66.1,65.0,30.18,SSW,192,0.0,0.0,97,0.00,,,0.00,weatherlink.com 1.10,2013-09-10 11:19:00,
2013-09-10 07:34:00,65.9,65.0,30.18,SSW,192,0.0,0.0,97,0.00,,,0.00,weatherlink.com 1.10,2013-09-10 11:34:00,
2013-09-10 07:49:00,66.3,66.0,30.18,SSW,201,0.0,1.0,97,0.00,,,0.00,weatherlink.com 1.10,2013-09-10 11:49:00,
2013-09-10 08:04:00,66.4,66.0,30.19,SSW,201,0.0,0.0,97,0.00,,,0.00,weatherlink.com 1.10,2013-09-10 12:04:00,
2013-09-10 08:19:00,66.8,66.0,30.19,SSW,202,0.0,0.0,98,0.00,,,0.00,weatherlink.com 1.10,2013-09-10 12:19:00,
2013-09-10 08:34:00,67.4,67.0,30.19,SSW,202,0.0,0.0,98,0.00,,,0.00,weatherlink.com 1.10,2013-09-10 12:34:00,
2013-09-10 08:49:00,67.9,67.0,30.19,SSW,202,0.0,0.0,97,0.00,,,0.00,weatherlink.com 1.10,2013-09-10 12:49:00,
2013-09-10 09:04:00,68.7,68.0,30.20,SSW,202,0.0,1.0,96,0.00,,,0.00,weatherlink.com 1.10,2013-09-10 13:04:00,
2013-09-10 09:19:00,69.9,69.0,30.20,SW,227,0.0,1.0,95,0.00,,,0.00,weatherlink.com 1.10,2013-09-10 13:19:00,
2013-09-10 09:34:00,70.9,69.0,30.20,WSW,247,0.0,1.0,93,0.00,,,0.00,weatherlink.com 1.10,2013-09-10 13:34:00,
2013-09-10 09:49:00,72.2,70.0,30.21,West,267,0.0,2.0,91,0.00,,,0.00,weatherlink.com 1.10,2013-09-10 13:49:00,
2013-09-10 10:04:00,73.2,70.0,30.21,SW,231,0.0,2.0,88,0.00,,,0.00,weatherlink.com 1.10,2013-09-10 14:04:00,
2013-09-10 10:19:00,74.2,70.0,30.21,SW,234,2.0,3.0,87,0.00,,,0.00,weatherlink.com 1.10,2013-09-10 14:19:00,
2013-09-10 10:34:00,75.5,70.0,30.21,SW,231,0.0,4.0,84,0.00,,,0.00,weatherlink.com 1.10,2013-09-10 14:34:00,
2013-09-10 10:49:00,76.3,70.0,30.21,SW,233,1.0,3.0,82,0.00,,,0.00,weatherlink.com 1.10,2013-09-10 14:49:00,
2013-09-10 11:04:00,77.6,72.0,30.21,WNW,289,1.0,3.0,82,0.00,,,0.00,weatherlink.com 1.10,2013-09-10 15:04:00,
2013-09-10 11:19:00,78.4,72.0,30.21,South,184,0.0,4.0,80,0.00,,,0.00,weatherlink.com 1.10,2013-09-10 15:19:00,
2013-09-10 11:35:00,79.3,72.0,30.20,ESE,111,0.0,5.0,79,0.00,,,0.00,weatherlink.com 1.10,2013-09-10 15:35:00,
2013-09-10 11:50:00,80.6,72.0,30.20,SW,236,0.0,4.0,75,0.00,,,0.00,weatherlink.com 1.10,2013-09-10 15:50:00,
2013-09-10 12:05:00,81.4,71.0,30.20,SSE,158,2.0,3.0,71,0.00,,,0.00,weatherlink.com 1.10,2013-09-10 16:05:00,
2013-09-10 12:20:00,81.6,71.0,30.20,WSW,257,0.0,8.0,71,0.00,,,0.00,weatherlink.com 1.10,2013-09-10 16:20:00,
2013-09-10 12:35:00,82.5,70.0,30.19,WSW,240,3.0,7.0,67,0.00,,,0.00,weatherlink.com 1.10,2013-09-10 16:35:00,
2013-09-10 12:50:00,82.7,71.0,30.19,WNW,282,0.0,3.0,68,0.00,,,0.00,weatherlink.com 1.10,2013-09-10 16:50:00,
2013-09-10 13:20:00,84.2,71.0,30.19,WSW,246,2.0,3.0,65,0.00,,,0.00,weatherlink.com 1.10,2013-09-10 17:20:00,
2013-09-10 13:35:00,84.0,70.0,30.19,SSW,200,2.0,5.0,63,0.00,,,0.00,weatherlink.com 1.10,2013-09-10 17:35:00,
2013-09-10 13:50:00,84.2,71.0,30.18,NW,309,0.0,4.0,64,0.00,,,0.00,weatherlink.com 1.10,2013-09-10 17:50:00,
2013-09-10 14:05:00,84.5,70.0,30.18,SW,222,3.0,5.0,63,0.00,,,0.00,weatherlink.com 1.10,2013-09-10 18:05:00,
2013-09-10 14:20:00,84.8,71.0,30.17,SSW,200,0.0,4.0,63,0.00,,,0.00,weatherlink.com 1.10,2013-09-10 18:20:00,
2013-09-10 14:35:00,85.3,71.0,30.16,West,281,0.0,3.0,62,0.00,,,0.00,weatherlink.com 1.10,2013-09-10 18:35:00,
2013-09-10 14:50:00,85.5,71.0,30.16,WSW,242,2.0,4.0,62,0.00,,,0.00,weatherlink.com 1.10,2013-09-10 18:50:00,
2013-09-10 15:05:00,85.5,71.0,30.16,South,178,0.0,3.0,63,0.00,,,0.00,weatherlink.com 1.10,2013-09-10 19:05:00,
2013-09-10 15:20:00,85.6,73.0,30.15,SSW,196,2.0,4.0,65,0.00,,,0.00,weatherlink.com 1.10,2013-09-10 19:20:00,
2013-09-10 15:35:00,86.1,72.0,30.14,SSE,163,0.0,5.0,62,0.00,,,0.00,weatherlink.com 1.10,2013-09-10 19:35:00,
2013-09-10 15:50:00,85.8,71.0,30.14,NW,317,1.0,7.0,61,0.00,,,0.00,weatherlink.com 1.10,2013-09-10 19:50:00,
2013-09-10 16:05:00,85.9,71.0,30.14,West,272,0.0,4.0,62,0.00,,,0.00,weatherlink.com 1.10,2013-09-10 20:05:00,
2013-09-10 16:20:00,85.5,71.0,30.14,South,183,1.0,4.0,62,0.00,,,0.00,weatherlink.com 1.10,2013-09-10 20:20:00,
2013-09-10 16:35:00,84.8,71.0,30.14,WNW,298,0.0,4.0,64,0.00,,,0.00,weatherlink.com 1.10,2013-09-10 20:35:00,
2013-09-10 16:50:00,84.9,71.0,30.13,SSW,211,2.0,4.0,63,0.00,,,0.00,weatherlink.com 1.10,2013-09-10 20:50:00,
2013-09-10 17:05:00,84.9,71.0,30.12,South,189,2.0,5.0,63,0.00,,,0.00,weatherlink.com 1.10,2013-09-10 21:05:00,
2013-09-10 17:20:00,84.9,71.0,30.13,SW,215,0.0,4.0,63,0.00,,,0.00,weatherlink.com 1.10,2013-09-10 21:20:00,
2013-09-10 17:35:00,84.5,70.0,30.13,SSW,193,0.0,2.0,63,0.00,,,0.00,weatherlink.com 1.10,2013-09-10 21:35:00,
2013-09-10 17:50:00,84.5,71.0,30.12,WSW,242,0.0,3.0,65,0.00,,,0.00,weatherlink.com 1.10,2013-09-10 21:50:00,
2013-09-10 18:05:00,84.2,71.0,30.12,WSW,254,1.0,2.0,64,0.00,,,0.00,weatherlink.com 1.10,2013-09-10 22:05:00,
2013-09-10 18:20:00,83.8,71.0,30.12,SSW,195,1.0,2.0,66,0.00,,,0.00,weatherlink.com 1.10,2013-09-10 22:20:00,
2013-09-10 18:35:00,83.2,71.0,30.12,SSW,192,0.0,2.0,67,0.00,,,0.00,weatherlink.com 1.10,2013-09-10 22:35:00,
2013-09-10 18:50:00,82.5,71.0,30.12,SW,224,0.0,1.0,68,0.00,,,0.00,weatherlink.com 1.10,2013-09-10 22:50:00,
2013-09-10 19:05:00,82.1,71.0,30.12,SW,215,0.0,0.0,69,0.00,,,0.00,weatherlink.com 1.10,2013-09-10 23:05:00,
2013-09-10 19:20:00,81.5,71.0,30.12,SW,215,0.0,0.0,70,0.00,,,0.00,weatherlink.com 1.10,2013-09-10 23:20:00,
2013-09-10 19:35:00,80.9,71.0,30.13,SW,215,0.0,0.0,72,0.00,,,0.00,weatherlink.com 1.10,2013-09-10 23:35:00,
2013-09-10 19:50:00,80.2,71.0,30.13,SW,215,0.0,0.0,73,0.00,,,0.00,weatherlink.com 1.10,2013-09-10 23:50:00,
2013-09-10 20:05:00,79.3,71.0,30.14,SW,215,0.0,0.0,75,0.00,,,0.00,weatherlink.com 1.10,2013-09-11 00:05:00,
2013-09-10 20:20:00,78.9,70.0,30.14,SW,215,0.0,0.0,75,0.00,,,0.00,weatherlink.com 1.10,2013-09-11 00:20:00,
2013-09-10 20:35:00,78.6,70.0,30.14,SW,215,0.0,0.0,76,0.00,,,0.00,weatherlink.com 1.10,2013-09-11 00:35:00,
2013-09-10 20:50:00,78.4,70.0,30.15,SW,215,0.0,0.0,76,0.00,,,0.00,weatherlink.com 1.10,2013-09-11 00:50:00,
2013-09-10 21:05:00,78.6,70.0,30.16,WSW,252,0.0,1.0,76,0.00,,,0.00,weatherlink.com 1.10,2013-09-11 01:05:00,
2013-09-10 21:20:00,78.7,71.0,30.17,West,260,0.0,1.0,76,0.00,,,0.00,weatherlink.com 1.10,2013-09-11 01:20:00,
2013-09-10 21:35:00,78.5,70.0,30.17,West,262,0.0,2.0,76,0.00,,,0.00,weatherlink.com 1.10,2013-09-11 01:35:00,
2013-09-10 21:50:00,78.2,70.0,30.18,WSW,257,0.0,0.0,77,0.00,,,0.00,weatherlink.com 1.10,2013-09-11 01:50:00,
2013-09-10 22:05:00,77.9,71.0,30.18,WSW,253,0.0,0.0,78,0.00,,,0.00,weatherlink.com 1.10,2013-09-11 02:05:00,
2013-09-10 22:20:00,77.3,71.0,30.18,WSW,253,0.0,0.0,80,0.00,,,0.00,weatherlink.com 1.10,2013-09-11 02:20:00,
2013-09-10 22:35:00,76.6,71.0,30.18,WSW,253,0.0,0.0,82,0.00,,,0.00,weatherlink.com 1.10,2013-09-11 02:35:00,
2013-09-10 22:50:00,76.0,71.0,30.19,WSW,253,0.0,0.0,83,0.00,,,0.00,weatherlink.com 1.10,2013-09-11 02:50:00,
2013-09-10 23:05:00,75.4,71.0,30.18,WSW,253,0.0,0.0,85,0.00,,,0.00,weatherlink.com 1.10,2013-09-11 03:05:00,
2013-09-10 23:20:00,74.6,70.0,30.18,WSW,253,0.0,0.0,85,0.00,,,0.00,weatherlink.com 1.10,2013-09-11 03:20:00,
2013-09-10 23:35:00,75.3,70.0,30.17,WSW,253,0.0,0.0,84,0.00,,,0.00,weatherlink.com 1.10,2013-09-11 03:35:00,
2013-09-10 23:50:00,75.1,70.0,30.17,WSW,253,0.0,0.0,85,0.00,,,0.00,weatherlink.com 1.10,2013-09-11 03:50:00,